EGSCEGBB

Guest
Details From EGSC - Cambridge
To EGBB - Birmingham
Flight Number -
Tags Generated
Created
Modified
Stats Distance 72 nm / 134 km
Max Altitude 0 ft / 0 m
Waypoints 2
Social Downloads 3
Likes 0
Share VATSIM

Download

Looking for another format? Having issues loading an existing format? Contact us
Advertisement - Login to hide

Notes

Generated

Route

EGSC EGBB

ID Type Via Altitude Latitude Longitude Leg Dist Tot Dist Heading (true) Name
O EGSC APT - 0 ft / 0 m 52.20326˚ 0.16866˚ - 0 nm - -
O EGBB APT - 0 ft / 0 m 52.45113˚ -1.75493˚ 72 nm 72 nm 283° / 281° -

Altitude Profile

Advertisement - Login to hide

EGSC

Details ICAO EGSC (CBG)
Name Cambridge
Region United Kingdom
Timezone Europe/London (UTC+1.0)
Stats Elevation 47 ft / 14 m (AMSL)
Location 52.204476° 0.176450°
Runways 3
Magnetic Variation 0.352° W

METAR

EGSC 221620Z 01013KT CAVOK 16/10 Q1018

Decode

TAF

Not found

Departure Runways

ID Width Length Bearing (true) Bearing (mag) Surface Threshold Offset Overrun Length
05 151 ft / 46 m 6,417 ft / 1,956 m 49.79° 50.14° Asphalt 692 ft / 211 m 0 ft / 0 m
05R 115 ft / 35 m 2,947 ft / 898 m 49.84° 50.19° Grass 0 ft / 0 m 0 ft / 0 m
10 115 ft / 35 m 2,290 ft / 698 m 99.91° 100.26° Grass 0 ft / 0 m 0 ft / 0 m
23 151 ft / 46 m 6,417 ft / 1,956 m 229.81° 230.16° Asphalt 469 ft / 143 m 0 ft / 0 m
23L 115 ft / 35 m 2,947 ft / 898 m 229.85° 230.20° Grass 0 ft / 0 m 0 ft / 0 m
28 115 ft / 35 m 2,290 ft / 698 m 279.91° 280.26° Grass 0 ft / 0 m 0 ft / 0 m

EGBB

Details ICAO EGBB (BHX)
Name Birmingham
Region United Kingdom
Timezone Europe/London (UTC+1.0)
Stats Elevation 327 ft / 100 m (AMSL)
Location 52.455966° -1.750378°
Runways 1
Magnetic Variation 1.073° W

METAR

EGBB 221620Z 04010KT 9999 SCT042 20/10 Q1019

Decode

TAF

TAF EGBB 221058Z 2212/2312 03012KT 9999 FEW045 BECMG 2221/2224 7000 PROB30 2300/2308 4000 BR BKN007 BECMG 2308/2311 9999

Decode

Destination Runways

ID Width Length Bearing (true) Bearing (mag) Surface Threshold Offset Overrun Length
15 151 ft / 46 m 8,477 ft / 2,584 m 145.87° 146.94° Asphalt 925 ft / 282 m 0 ft / 0 m
33 151 ft / 46 m 8,477 ft / 2,584 m 325.89° 326.96° Asphalt 958 ft / 292 m 0 ft / 0 m

Approach Navaids

Runway Type Ident Frequency Range Bearing (true) Bearing (mag) Slope Elevation
15 Localiser IBIR 110.10 MHz 18 nm / 33 km 145.89° 146.97° - 325 ft / 99 m (AMSL)
15 Glidescope IBIR 110.10 MHz 10 nm / 19 km 145.88° 146.95° 3.00° 325 ft / 99 m (AMSL)
15 DME IBIR 110.10 MHz 18 nm / 33 km - - - 349 ft / 106 m (AMSL)
33 Localiser IBM 110.10 MHz 18 nm / 33 km 325.87° 326.94° - 325 ft / 99 m (AMSL)
33 Glidescope IBM 110.10 MHz 10 nm / 19 km 325.88° 326.95° 3.00° 325 ft / 99 m (AMSL)
33 DME IBM 110.10 MHz 18 nm / 33 km - - - 327 ft / 100 m (AMSL)